When you browse on this site, cookies collect data to enhance your experience and personalize the content and advertising you see.
Visit our Privacy Policy to learn more. By continuing to use the site, you agree to this use of cookies and data.
  • In Portugal
  • List of Countries
  • For 7 days
  • Water Temperature
  • Satellite Maps
  • Weather Map
  • Weather Widgets
  • user-avatar
    Login

    Hourly Weather Khulna

    Today, 22 July, Monday

    Time Temperature Precipitation Wind Pressure Humidity
    00:00 +30°C° 0 mm 2 mps 752 mmHg 81%
    01:00 +30°C° 0 mm 3 mps 751 mmHg 82%
    02:00 +30°C° 0 mm 3 mps 751 mmHg 84%
    03:00 +30°C° 0 mm 3 mps 751 mmHg 85%
    04:00 +30°C° 0 mm 3 mps 751 mmHg 85%
    05:00 +30°C° 0 mm 3 mps 751 mmHg 86%
    06:00 +30°C° 0 mm 1 mps 751 mmHg 88%
    07:00 +31°C° 0 mm 2 mps 752 mmHg 83%
    08:00 +33°C° 0 mm 3 mps 752 mmHg 77%
    09:00 +34°C° 0 mm 3 mps 753 mmHg 72%
    10:00 +35°C° 0.1 mm 4 mps 752 mmHg 67%
    11:00 +36°C° 0.1 mm 4 mps 752 mmHg 63%
    12:00 +36°C° 0 mm 4 mps 752 mmHg 60%
    13:00 +36°C° 0.5 mm 4 mps 751 mmHg 59%
    14:00 +36°C° 0.5 mm 4 mps 751 mmHg 57%
    15:00 +37°C° 0.5 mm 4 mps 750 mmHg 56%
    16:00 +36°C° 0.9 mm 4 mps 750 mmHg 61%
    17:00 +35°C° 0.9 mm 5 mps 750 mmHg 66%
    18:00 +34°C° 0.9 mm 5 mps 750 mmHg 70%
    19:00 +33°C° 0 mm 5 mps 750 mmHg 73%
    20:00 +32°C° 0 mm 4 mps 751 mmHg 76%
    21:00 +30°C° 0 mm 4 mps 751 mmHg 79%
    22:00 +30°C° 0 mm 4 mps 751 mmHg 79%
    23:00 +30°C° 0 mm 4 mps 751 mmHg 80%

    Tomorrow, 23 July, Tuesday

    Time Temperature Precipitation Wind Pressure Humidity
    00:00 +29°C° 0 mm 4 mps 751 mmHg 81%
    01:00 +29°C° 0 mm 3 mps 751 mmHg 82%
    02:00 +29°C° 0 mm 3 mps 751 mmHg 82%
    03:00 +29°C° 0 mm 3 mps 750 mmHg 82%
    04:00 +29°C° 0 mm 3 mps 750 mmHg 83%
    05:00 +29°C° 0 mm 2 mps 750 mmHg 84%
    06:00 +29°C° 0 mm 2 mps 751 mmHg 85%
    07:00 +30°C° 0 mm 2 mps 751 mmHg 80%
    08:00 +31°C° 0 mm 3 mps 751 mmHg 76%
    09:00 +33°C° 0 mm 3 mps 752 mmHg 71%
    10:00 +35°C° 0 mm 4 mps 751 mmHg 65%
    11:00 +36°C° 0 mm 4 mps 751 mmHg 58%
    12:00 +37°C° 0 mm 4 mps 751 mmHg 51%
    13:00 +38°C° 0 mm 4 mps 750 mmHg 50%
    14:00 +38°C° 0 mm 4 mps 750 mmHg 49%
    15:00 +38°C° 0 mm 4 mps 749 mmHg 49%
    16:00 +37°C° 0 mm 4 mps 749 mmHg 53%
    17:00 +36°C° 0 mm 4 mps 749 mmHg 58%
    18:00 +35°C° 0 mm 5 mps 749 mmHg 63%
    19:00 +34°C° 0 mm 5 mps 749 mmHg 67%
    20:00 +33°C° 0 mm 5 mps 750 mmHg 71%
    21:00 +32°C° 0 mm 5 mps 750 mmHg 75%
    22:00 +32°C° 0 mm 4 mps 750 mmHg 77%
    23:00 +30°C° 0 mm 4 mps 750 mmHg 79%

    Day after tomorrow, 24 July, Wednesday

    Time Temperature Precipitation Wind Pressure Humidity
    00:00 +30°C° 0 mm 4 mps 750 mmHg 81%
    01:00 +30°C° 0 mm 3 mps 750 mmHg 82%
    02:00 +30°C° 0 mm 3 mps 750 mmHg 83%
    03:00 +30°C° 0 mm 3 mps 749 mmHg 84%
    04:00 +30°C° 0 mm 2 mps 749 mmHg 85%
    05:00 +30°C° 0 mm 2 mps 749 mmHg 85%
    06:00 +30°C° 0 mm 2 mps 749 mmHg 86%
    07:00 +31°C° 0 mm 2 mps 750 mmHg 79%
    08:00 +33°C° 0 mm 3 mps 750 mmHg 73%
    09:00 +35°C° 0 mm 3 mps 751 mmHg 66%
    10:00 +36°C° 0 mm 3 mps 750 mmHg 61%
    11:00 +37°C° 0 mm 3 mps 750 mmHg 57%
    12:00 +37°C° 0 mm 3 mps 750 mmHg 52%
    13:00 +37°C° 0.8 mm 3 mps 749 mmHg 53%
    14:00 +37°C° 0.8 mm 3 mps 749 mmHg 54%
    15:00 +37°C° 0.8 mm 3 mps 748 mmHg 55%
    16:00 +36°C° 1.3 mm 3 mps 748 mmHg 60%
    17:00 +35°C° 1.3 mm 3 mps 748 mmHg 65%
    18:00 +34°C° 1.3 mm 4 mps 748 mmHg 71%
    19:00 +33°C° 0.6 mm 3 mps 749 mmHg 74%
    20:00 +33°C° 0.6 mm 3 mps 749 mmHg 77%
    21:00 +31°C° 0.6 mm 3 mps 750 mmHg 80%
    22:00 +31°C° 0.5 mm 3 mps 750 mmHg 81%
    23:00 +30°C° 0.5 mm 3 mps 750 mmHg 83%

    25 July, Thursday

    Time Temperature Precipitation Wind Pressure Humidity
    00:00 +30°C° 0.5 mm 3 mps 750 mmHg 84%
    01:00 +30°C° 1 mm 2 mps 749 mmHg 84%
    02:00 +30°C° 1 mm 2 mps 749 mmHg 84%
    03:00 +30°C° 1 mm 1 mps 749 mmHg 84%
    04:00 +30°C° 0.1 mm 1 mps 749 mmHg 84%
    05:00 +30°C° 0.1 mm 1 mps 749 mmHg 85%
    06:00 +30°C° 0.1 mm 1 mps 749 mmHg 86%
    07:00 +31°C° 1 mm 1 mps 750 mmHg 79%
    08:00 +32°C° 1 mm 1 mps 750 mmHg 72%
    09:00 +33°C° 1 mm 1 mps 750 mmHg 65%
    10:00 +35°C° 0.6 mm 2 mps 750 mmHg 64%
    11:00 +35°C° 0.6 mm 2 mps 750 mmHg 62%
    12:00 +36°C° 0.6 mm 2 mps 750 mmHg 61%
    13:00 +35°C° 2.4 mm 3 mps 749 mmHg 66%
    14:00 +34°C° 2.4 mm 4 mps 749 mmHg 71%
    15:00 +33°C° 2.4 mm 5 mps 748 mmHg 76%
    16:00 +32°C° 0.8 mm 4 mps 748 mmHg 78%
    17:00 +30°C° 0.8 mm 4 mps 748 mmHg 80%
    18:00 +30°C° 0.8 mm 4 mps 749 mmHg 83%
    19:00 +30°C° 0.1 mm 4 mps 749 mmHg 83%
    20:00 +29°C° 0.1 mm 3 mps 750 mmHg 84%
    21:00 +29°C° 0.1 mm 3 mps 750 mmHg 85%
    22:00 +29°C° 0.1 mm 3 mps 750 mmHg 86%
    23:00 +29°C° 0.1 mm 3 mps 750 mmHg 88%

    26 July, Friday

    Time Temperature Precipitation Wind Pressure Humidity
    00:00 +29°C° 0.1 mm 3 mps 750 mmHg 89%
    01:00 +29°C° 0.3 mm 3 mps 750 mmHg 89%
    02:00 +28°C° 0.3 mm 3 mps 749 mmHg 89%
    03:00 +28°C° 0.3 mm 3 mps 749 mmHg 89%
    04:00 +28°C° 0.2 mm 2 mps 749 mmHg 89%
    05:00 +28°C° 0.2 mm 2 mps 749 mmHg 89%
    06:00 +28°C° 0.2 mm 2 mps 750 mmHg 89%
    07:00 +29°C° 0.1 mm 2 mps 750 mmHg 86%
    08:00 +30°C° 0.1 mm 2 mps 750 mmHg 82%
    09:00 +30°C° 0.1 mm 2 mps 751 mmHg 79%
    10:00 +31°C° 0.1 mm 2 mps 750 mmHg 75%
    11:00 +32°C° 0.1 mm 2 mps 750 mmHg 72%
    12:00 +34°C° 0.1 mm 2 mps 750 mmHg 68%
    13:00 +34°C° 0.7 mm 3 mps 749 mmHg 69%
    14:00 +34°C° 0.7 mm 4 mps 749 mmHg 70%
    15:00 +33°C° 0.7 mm 5 mps 748 mmHg 70%
    16:00 +33°C° 0.1 mm 5 mps 748 mmHg 73%
    17:00 +32°C° 0.1 mm 5 mps 748 mmHg 76%
    18:00 +30°C° 0.1 mm 5 mps 748 mmHg 79%
    19:00 +30°C° 0 mm 5 mps 749 mmHg 81%
    20:00 +30°C° 0 mm 4 mps 749 mmHg 83%
    21:00 +29°C° 0 mm 4 mps 750 mmHg 85%
    22:00 +29°C° 0.5 mm 4 mps 750 mmHg 85%
    23:00 +29°C° 0.5 mm 4 mps 750 mmHg 85%

    27 July, Saturday

    Time Temperature Precipitation Wind Pressure Humidity
    00:00 +29°C° 0.5 mm 3 mps 750 mmHg 85%
    01:00 +29°C° 2.5 mm 4 mps 750 mmHg 87%
    02:00 +29°C° 2.5 mm 4 mps 749 mmHg 88%
    03:00 +29°C° 2.5 mm 4 mps 749 mmHg 89%
    04:00 +28°C° 1.4 mm 3 mps 749 mmHg 90%
    05:00 +28°C° 1.4 mm 3 mps 749 mmHg 91%
    06:00 +28°C° 1.4 mm 3 mps 749 mmHg 92%
    07:00 +28°C° 0.2 mm 3 mps 750 mmHg 91%
    08:00 +29°C° 0.2 mm 3 mps 750 mmHg 90%
    09:00 +29°C° 0.2 mm 3 mps 750 mmHg 88%
    10:00 +30°C° 0.4 mm 3 mps 750 mmHg 86%
    11:00 +30°C° 0.4 mm 4 mps 750 mmHg 83%
    12:00 +32°C° 0.4 mm 5 mps 750 mmHg 80%
    13:00 +32°C° 1.3 mm 5 mps 749 mmHg 78%
    14:00 +33°C° 1.3 mm 6 mps 749 mmHg 77%
    15:00 +33°C° 1.3 mm 6 mps 748 mmHg 75%
    16:00 +32°C° 0.3 mm 6 mps 748 mmHg 77%
    17:00 +32°C° 0.3 mm 6 mps 748 mmHg 79%
    18:00 +30°C° 0.3 mm 6 mps 748 mmHg 81%
    19:00 +30°C° 0 mm 5 mps 749 mmHg 83%
    20:00 +29°C° 0 mm 5 mps 749 mmHg 84%
    21:00 +29°C° 0 mm 4 mps 750 mmHg 86%
    22:00 +29°C° 0 mm 4 mps 750 mmHg 87%
    23:00 +29°C° 0 mm 3 mps 750 mmHg 87%
    Show more